OK1PHU-6 Weather Reports


time (UTC)temp
F
wind
direction
speed
knots
gust
knots
rain 1hr
in
rain 24hr
in
rain mn
in
humidity
%
barometer
mb
20260502231051 0 135 1.7 2.6 0.00 0.00 0.00 1019.4
20260502230009 0 135 0.9 2.6 0.00 0.00 0.00 1019.4
20260502224923 0 135 1.7 3.5 0.00 0.00 0.00 1019.4
20260502223840 0 113 2.6 3.5 0.00 0.00 0.00 1019.5
20260502222755 0 135 1.7 3.5 0.00 0.00 0.00 1019.4
20260502221708 0 135 1.7 3.5 0.00 0.00 0.00 1019.4
20260502220625 0 135 2.6 3.5 0.00 0.00 0.00 1019.4
20260502215542 0 135 1.7 3.5 0.00 0.00 0.00 1019.4
20260502214453 0 90 1.7 3.5 0.00 0.00 0.00 1019.3
20260502213410 0 90 2.6 5.2 0.00 0.00 0.00 1019.3
20260502212326 0 113 2.6 5.2 0.00 0.00 0.00 1019.4
20260502211243 0 180 1.7 5.2 0.00 0.00 0.00 1019.5
20260502210159 0 180 1.7 3.5 0.00 0.00 0.00 1019.4
20260502205117 0 135 3.5 4.3 0.00 0.00 0.00 1019.5
20260502204031 0 180 2.6 4.3 0.00 0.00 0.00 1019.7
20260502202947 0 135 1.7 6.1 0.00 0.00 0.00 1019.7
20260502201903 0 135 2.6 4.3 0.00 0.00 0.00 1019.9
20260502200818 0 135 2.6 3.5 0.00 0.00 0.00 1019.8
20260502195734 0 135 1.7 3.5 0.00 0.00 0.00 1019.9
20260502194649 0 135 1.7 2.6 0.00 0.00 0.00 1019.9
20260502193608 0 135 1.7 2.6 0.00 0.00 0.00 1019.8
20260502192524 0 135 1.7 1.7 0.00 0.00 0.00 1019.9
20260502191439 0 90 1.7 2.6 0.00 0.00 0.00 1019.7
20260502190355 0 90 1.7 2.6 0.00 0.00 0.00 1019.7
20260502185309 0 90 0.9 2.6 0.00 0.00 0.00 1019.5
20260502184227 0 113 1.7 2.6 0.00 0.00 0.00 1019.3
20260502183140 0 135 1.7 1.7 0.00 0.00 0.00 1018.8
20260502182057 0 135 1.7 2.6 0.00 0.00 0.00 1018.5
20260502181013 0 135 1.7 3.5 0.00 0.00 0.00 1018.2
20260502163325 0 135 3.5 4.3 0.00 0.00 0.00 1018.1
20260502162239 0 135 0.9 5.2 0.00 0.00 0.00 1018.2
20260502161155 0 90 3.5 5.2 0.00 0.00 0.00 1018.3
20260502160110 0 315 0.9 6.1 0.00 0.00 0.00 1018.4
20260502151816 0 90 1.7 4.3 0.00 0.00 0.00 1018.9
20260502150732 0 23 1.7 4.3 0.00 0.00 0.00 1018.9
20260502123658 0 23 0.9 4.3 0.00 0.00 0.00 1020.6
20260502122616 0 0 2.6 4.3 0.00 0.00 0.00 1020.6
20260502121533 0 135 0.9 5.2 0.00 0.00 0.00 1020.9
20260502120450 0 0 1.7 6.1 0.00 0.00 0.00 1020.9
20260502115406 0 90 3.5 5.2 0.00 0.00 0.00 1021.0
20260502114323 0 45 2.6 4.3 0.00 0.00 0.00 1021.2
20260502113238 0 45 0.9 7.8 0.00 0.00 0.00 1021.3
20260502112153 0 135 7.8 8.7 0.00 0.00 0.00 1021.6
20260502111107 0 90 2.6 5.2 0.00 0.00 0.00 1021.7
20260502110025 0 45 1.7 4.3 0.00 0.00 0.00 1022.0
20260502104936 0 45 2.6 5.2 0.00 0.00 0.00 1022.2
20260502103852 0 90 3.5 5.2 0.00 0.00 0.00 1022.2
20260502102808 0 180 1.7 3.5 0.00 0.00 0.00 1022.4
20260502101725 0 45 3.5 7.0 0.00 0.00 0.00 1022.5
20260502100643 0 90 1.7 5.2 0.00 0.00 0.00 1022.7
20260502091251 0 315 1.7 4.3 0.00 0.00 0.00 1023.5
20260502090208 0 315 2.6 4.3 0.00 0.00 0.00 1023.6
20260502071448 0 225 1.7 3.5 0.00 0.00 0.00 1024.6
20260502070400 0 90 0.9 1.7 0.00 0.00 0.00 1024.7
20260502065316 0 45 0.0 1.7 0.00 0.00 0.00 1024.9
20260502064230 0 45 0.9 2.6 0.00 0.00 0.00 1025.1
20260502063142 0 180 0.9 4.3 0.00 0.00 0.00 1025.3
20260502062058 0 225 0.0 1.7 0.00 0.00 0.00 1025.5
20260502061015 0 0 0.9 0.9 0.00 0.00 0.00 1025.7
20260502055931 0 315 0.0 0.9 0.00 0.00 0.00 1025.9
20260502054847 0 135 0.0 0.0 0.00 0.00 0.00 1026.2
20260502053804 0 0 0.0 0.0 0.00 0.00 0.00 1026.4
20260502052720 0 45 0.0 0.0 0.00 0.00 0.00 1026.5